Time,TemperatureF,DewpointF,PressureIn,WindDirection,WindDirectionDegrees,WindSpeedMPH,WindSpeedGustMPH,Humidity,HourlyPrecipIn,Conditions,Clouds,dailyrainin,SoftwareType,DateUTC
2013-04-06 00:03:00,34.0,23.0,29.86,NNW,335,9.0,-999.0,64,-99.99,,,-99.99,,2013-04-06 04:03:00,
2013-04-06 00:14:00,34.0,23.0,29.86,NNW,335,9.0,-999.0,64,-99.99,,,-99.99,,2013-04-06 04:14:00,
2013-04-06 00:23:00,33.0,22.0,29.84,North,357,9.0,-999.0,64,-99.99,,,-99.99,,2013-04-06 04:23:00,
2013-04-06 00:33:00,33.0,22.0,29.87,North,1,10.0,-999.0,63,-99.99,,,-99.99,,2013-04-06 04:33:00,
2013-04-06 00:42:00,33.0,22.0,29.87,North,1,10.0,-999.0,63,-99.99,,,-99.99,,2013-04-06 04:42:00,
2013-04-06 00:53:00,32.0,21.0,29.84,North,360,10.0,-999.0,64,-99.99,,,-99.99,,2013-04-06 04:53:00,
2013-04-06 01:02:00,32.0,22.0,29.85,North,3,9.0,-999.0,65,-99.99,,,-99.99,,2013-04-06 05:02:00,
2013-04-06 01:13:00,32.0,22.0,29.85,North,3,9.0,-999.0,65,-99.99,,,-99.99,,2013-04-06 05:13:00,
2013-04-06 01:22:00,32.0,22.0,29.85,NNW,346,8.0,-999.0,66,-99.99,,,-99.99,,2013-04-06 05:22:00,
2013-04-06 01:32:00,32.0,22.0,29.85,NNW,346,8.0,-999.0,66,-99.99,,,-99.99,,2013-04-06 05:32:00,
2013-04-06 01:42:00,32.0,22.0,29.85,NNW,346,8.0,-999.0,66,-99.99,,,-99.99,,2013-04-06 05:42:00,
2013-04-06 01:52:00,30.0,20.0,29.88,North,360,2.0,-999.0,67,-99.99,,,-99.99,,2013-04-06 05:52:00,
2013-04-06 02:03:00,30.0,20.0,29.86,North,357,6.0,-999.0,67,-99.99,,,-99.99,,2013-04-06 06:03:00,
2013-04-06 02:12:00,30.0,20.0,29.86,North,357,6.0,-999.0,67,-99.99,,,-99.99,,2013-04-06 06:12:00,
2013-04-06 02:22:00,30.0,20.0,29.86,North,359,9.0,-999.0,67,-99.99,,,-99.99,,2013-04-06 06:22:00,
2013-04-06 02:32:00,29.0,19.0,29.86,NNW,347,10.0,-999.0,67,-99.99,,,-99.99,,2013-04-06 06:32:00,
2013-04-06 02:42:00,29.0,19.0,29.86,NNW,347,10.0,-999.0,67,-99.99,,,-99.99,,2013-04-06 06:42:00,
2013-04-06 02:53:00,29.0,19.0,29.87,NNW,328,8.0,-999.0,67,-99.99,,,-99.99,,2013-04-06 06:53:00,
2013-04-06 03:03:00,29.0,20.0,29.88,NNW,329,8.0,-999.0,68,-99.99,,,-99.99,,2013-04-06 07:03:00,
2013-04-06 03:12:00,29.0,20.0,29.88,NNW,329,8.0,-999.0,68,-99.99,,,-99.99,,2013-04-06 07:12:00,
2013-04-06 03:22:00,29.0,20.0,29.89,North,360,7.0,-999.0,68,-99.99,,,-99.99,,2013-04-06 07:22:00,
2013-04-06 03:33:00,29.0,19.0,29.89,North,360,6.0,-999.0,66,-99.99,,,-99.99,,2013-04-06 07:33:00,
2013-04-06 03:43:00,29.0,19.0,29.89,North,360,6.0,-999.0,66,-99.99,,,-99.99,,2013-04-06 07:43:00,
2013-04-06 03:53:00,29.0,18.0,29.90,NNW,342,4.0,-999.0,63,-99.99,,,-99.99,,2013-04-06 07:53:00,
2013-04-06 04:02:00,29.0,18.0,29.91,North,360,6.0,-999.0,63,-99.99,,,-99.99,,2013-04-06 08:02:00,
2013-04-06 04:13:00,29.0,18.0,29.91,North,360,6.0,-999.0,63,-99.99,,,-99.99,,2013-04-06 08:13:00,
2013-04-06 04:22:00,28.0,20.0,29.92,North,360,7.0,-999.0,70,-99.99,,,-99.99,,2013-04-06 08:22:00,
2013-04-06 04:32:00,27.0,19.0,29.93,North,360,7.0,-999.0,71,-99.99,,,-99.99,,2013-04-06 08:32:00,
2013-04-06 04:42:00,27.0,19.0,29.93,North,360,7.0,-999.0,71,-99.99,,,-99.99,,2013-04-06 08:42:00,
2013-04-06 04:52:00,27.0,18.0,29.95,NNW,328,8.0,-999.0,69,-99.99,,,-99.99,,2013-04-06 08:52:00,
2013-04-06 05:02:00,26.0,17.0,29.95,NNW,339,9.0,-999.0,67,-99.99,,,-99.99,,2013-04-06 09:02:00,
2013-04-06 05:12:00,26.0,17.0,29.95,NNW,339,9.0,-999.0,67,-99.99,,,-99.99,,2013-04-06 09:12:00,
2013-04-06 05:22:00,26.0,17.0,29.96,NNW,340,8.0,-999.0,67,-99.99,,,-99.99,,2013-04-06 09:22:00,
2013-04-06 05:33:00,26.0,16.0,29.98,North,8,6.0,-999.0,66,-99.99,,,-99.99,,2013-04-06 09:33:00,
2013-04-06 05:43:00,26.0,16.0,29.98,North,8,6.0,-999.0,66,-99.99,,,-99.99,,2013-04-06 09:43:00,
2013-04-06 05:53:00,26.0,16.0,29.99,North,360,8.0,-999.0,64,-99.99,,,-99.99,,2013-04-06 09:53:00,
2013-04-06 06:03:00,26.0,15.0,30.00,North,360,12.0,-999.0,62,-99.99,,,-99.99,,2013-04-06 10:03:00,
2013-04-06 06:13:00,26.0,15.0,30.00,North,360,12.0,-999.0,62,-99.99,,,-99.99,,2013-04-06 10:13:00,
2013-04-06 06:23:00,25.0,14.0,30.01,North,360,12.0,-999.0,62,-99.99,,,-99.99,,2013-04-06 10:23:00,
2013-04-06 06:33:00,25.0,14.0,30.02,North,357,12.0,-999.0,62,-99.99,,,-99.99,,2013-04-06 10:33:00,
2013-04-06 06:42:00,25.0,14.0,30.02,North,357,12.0,-999.0,62,-99.99,,,-99.99,,2013-04-06 10:42:00,
2013-04-06 06:53:00,24.0,13.0,30.03,North,6,13.0,-999.0,63,-99.99,,,-99.99,,2013-04-06 10:53:00,
2013-04-06 07:02:00,24.0,13.0,30.03,North,6,13.0,-999.0,63,-99.99,,,-99.99,,2013-04-06 11:02:00,
2013-04-06 07:12:00,24.0,13.0,30.03,North,6,13.0,-999.0,63,-99.99,,,-99.99,,2013-04-06 11:12:00,
2013-04-06 07:23:00,24.0,13.0,30.05,North,359,13.0,-999.0,61,-99.99,,,-99.99,,2013-04-06 11:23:00,
2013-04-06 07:33:00,24.0,12.0,30.03,NNW,339,15.0,-999.0,60,-99.99,,,-99.99,,2013-04-06 11:33:00,
2013-04-06 07:43:00,24.0,12.0,30.03,NNW,339,15.0,-999.0,60,-99.99,,,-99.99,,2013-04-06 11:43:00,
2013-04-06 07:53:00,24.0,12.0,30.03,WNW,299,14.0,-999.0,59,-99.99,,,-99.99,,2013-04-06 11:53:00,
2013-04-06 08:02:00,24.0,11.0,30.04,North,360,17.0,-999.0,56,-99.99,,,-99.99,,2013-04-06 12:02:00,
2013-04-06 08:13:00,24.0,11.0,30.04,North,360,17.0,-999.0,56,-99.99,,,-99.99,,2013-04-06 12:13:00,
2013-04-06 08:22:00,24.0,10.0,30.06,North,354,17.0,-999.0,55,-99.99,,,-99.99,,2013-04-06 12:22:00,
2013-04-06 08:33:00,25.0,11.0,30.07,North,352,13.0,-999.0,55,-99.99,,,-99.99,,2013-04-06 12:33:00,
2013-04-06 08:43:00,25.0,11.0,30.07,North,352,13.0,-999.0,55,-99.99,,,-99.99,,2013-04-06 12:43:00,
2013-04-06 08:53:00,25.0,10.0,30.07,WNW,298,14.0,-999.0,52,-99.99,,,-99.99,,2013-04-06 12:53:00,
2013-04-06 09:03:00,25.0,10.0,30.07,WNW,298,14.0,-999.0,52,-99.99,,,-99.99,,2013-04-06 13:03:00,
2013-04-06 09:13:00,25.0,10.0,30.07,WNW,298,14.0,-999.0,52,-99.99,,,-99.99,,2013-04-06 13:13:00,
2013-04-06 09:24:00,27.0,8.0,30.08,NW,320,15.0,-999.0,44,-99.99,,,-99.99,,2013-04-06 13:24:00,
2013-04-06 09:32:00,28.0,5.0,30.09,NNW,340,14.0,-999.0,37,-99.99,,,-99.99,,2013-04-06 13:32:00,
2013-04-06 09:43:00,28.0,5.0,30.09,NNW,340,14.0,-999.0,37,-99.99,,,-99.99,,2013-04-06 13:43:00,
2013-04-06 09:54:00,27.0,4.0,30.09,NW,325,14.0,-999.0,37,-99.99,,,-99.99,,2013-04-06 13:54:00,
2013-04-06 10:04:00,28.0,3.0,30.10,North,7,14.0,-999.0,34,-99.99,,,-99.99,,2013-04-06 14:04:00,
2013-04-06 10:12:00,29.0,4.0,30.10,NNW,339,13.0,-999.0,33,-99.99,,,-99.99,,2013-04-06 14:12:00,
2013-04-06 10:22:00,29.0,4.0,30.10,NNW,339,13.0,-999.0,33,-99.99,,,-99.99,,2013-04-06 14:22:00,
2013-04-06 10:33:00,29.0,1.0,30.11,NW,320,14.0,-999.0,30,-99.99,,,-99.99,,2013-04-06 14:33:00,
2013-04-06 10:43:00,29.0,1.0,30.11,NW,320,14.0,-999.0,30,-99.99,,,-99.99,,2013-04-06 14:43:00,
2013-04-06 10:53:00,30.0,2.0,30.11,NNE,14,13.0,-999.0,29,-99.99,,,-99.99,,2013-04-06 14:53:00,
2013-04-06 11:02:00,31.0,2.0,30.11,NW,311,13.0,-999.0,28,-99.99,,,-99.99,,2013-04-06 15:02:00,
2013-04-06 11:12:00,31.0,2.0,30.11,NW,311,13.0,-999.0,28,-99.99,,,-99.99,,2013-04-06 15:12:00,
2013-04-06 11:23:00,32.0,3.0,30.12,North,350,13.0,-999.0,28,-99.99,,,-99.99,,2013-04-06 15:23:00,
2013-04-06 11:33:00,33.0,3.0,30.13,NW,311,13.0,-999.0,27,-99.99,,,-99.99,,2013-04-06 15:33:00,
2013-04-06 11:43:00,33.0,3.0,30.13,NW,311,13.0,-999.0,27,-99.99,,,-99.99,,2013-04-06 15:43:00,
2013-04-06 11:53:00,34.0,3.0,30.16,North,359,11.0,-999.0,26,-99.99,,,-99.99,,2013-04-06 15:53:00,
2013-04-06 12:05:00,34.0,3.0,30.16,North,359,11.0,-999.0,26,-99.99,,,-99.99,,2013-04-06 16:05:00,
2013-04-06 12:17:00,34.0,3.0,30.16,North,359,11.0,-999.0,26,-99.99,,,-99.99,,2013-04-06 16:17:00,
2013-04-06 12:23:00,35.0,3.0,30.16,North,1,13.0,-999.0,25,-99.99,,,-99.99,,2013-04-06 16:23:00,
2013-04-06 12:33:00,36.0,4.0,30.16,North,7,12.0,-999.0,26,-99.99,,,-99.99,,2013-04-06 16:33:00,
2013-04-06 12:43:00,36.0,4.0,30.16,North,7,12.0,-999.0,26,-99.99,,,-99.99,,2013-04-06 16:43:00,
2013-04-06 12:53:00,37.0,4.0,30.16,North,356,11.0,-999.0,25,-99.99,,,-99.99,,2013-04-06 16:53:00,
2013-04-06 13:03:00,37.0,4.0,30.16,North,360,13.0,-999.0,25,-99.99,,,-99.99,,2013-04-06 17:03:00,
2013-04-06 13:12:00,37.0,4.0,30.16,North,360,13.0,-999.0,25,-99.99,,,-99.99,,2013-04-06 17:12:00,
2013-04-06 13:22:00,38.0,4.0,30.16,North,360,12.0,-999.0,24,-99.99,,,-99.99,,2013-04-06 17:22:00,
2013-04-06 13:32:00,39.0,5.0,30.16,North,357,11.0,-999.0,24,-99.99,,,-99.99,,2013-04-06 17:32:00,
2013-04-06 13:42:00,39.0,5.0,30.16,North,357,11.0,-999.0,24,-99.99,,,-99.99,,2013-04-06 17:42:00,
2013-04-06 13:52:00,39.0,3.0,30.16,North,354,13.0,-999.0,22,-99.99,,,-99.99,,2013-04-06 17:52:00,
2013-04-06 14:03:00,39.0,4.0,30.16,NNW,347,9.0,-999.0,23,-99.99,,,-99.99,,2013-04-06 18:03:00,
2013-04-06 14:12:00,39.0,4.0,30.16,NNW,347,9.0,-999.0,23,-99.99,,,-99.99,,2013-04-06 18:12:00,
2013-04-06 14:23:00,40.0,4.0,30.16,NNW,335,7.0,-999.0,22,-99.99,,,-99.99,,2013-04-06 18:23:00,
2013-04-06 14:32:00,41.0,4.0,30.16,NNE,13,9.0,-999.0,21,-99.99,,,-99.99,,2013-04-06 18:32:00,
2013-04-06 14:42:00,41.0,4.0,30.16,NNE,13,9.0,-999.0,21,-99.99,,,-99.99,,2013-04-06 18:42:00,
2013-04-06 14:52:00,42.0,4.0,30.16,North,360,9.0,-999.0,20,-99.99,,,-99.99,,2013-04-06 18:52:00,
2013-04-06 15:03:00,42.0,5.0,30.16,North,10,9.0,-999.0,21,-99.99,,,-99.99,,2013-04-06 19:03:00,
2013-04-06 15:12:00,42.0,5.0,30.16,North,10,9.0,-999.0,21,-99.99,,,-99.99,,2013-04-06 19:12:00,
2013-04-06 15:23:00,42.0,5.0,30.16,NNE,14,8.0,-999.0,21,-99.99,,,-99.99,,2013-04-06 19:23:00,
2013-04-06 15:33:00,42.0,5.0,30.16,NNE,20,5.0,-999.0,21,-99.99,,,-99.99,,2013-04-06 19:33:00,
2013-04-06 15:42:00,42.0,5.0,30.16,NNE,20,5.0,-999.0,21,-99.99,,,-99.99,,2013-04-06 19:42:00,
2013-04-06 15:54:00,43.0,5.0,30.16,North,360,6.0,-999.0,20,-99.99,,,-99.99,,2013-04-06 19:54:00,
2013-04-06 16:03:00,43.0,5.0,30.16,NW,311,7.0,-999.0,20,-99.99,,,-99.99,,2013-04-06 20:03:00,
2013-04-06 16:12:00,43.0,5.0,30.16,NW,311,7.0,-999.0,20,-99.99,,,-99.99,,2013-04-06 20:12:00,
2013-04-06 16:22:00,42.0,4.0,30.16,WNW,284,5.0,-999.0,20,-99.99,,,-99.99,,2013-04-06 20:22:00,
2013-04-06 16:32:00,41.0,6.0,30.16,NE,45,6.0,-999.0,23,-99.99,,,-99.99,,2013-04-06 20:32:00,
2013-04-06 16:42:00,41.0,6.0,30.16,NE,45,6.0,-999.0,23,-99.99,,,-99.99,,2013-04-06 20:42:00,
2013-04-06 16:53:00,42.0,5.0,30.16,NW,318,3.0,-999.0,21,-99.99,,,-99.99,,2013-04-06 20:53:00,
2013-04-06 17:02:00,42.0,5.0,30.16,North,360,4.0,-999.0,21,-99.99,,,-99.99,,2013-04-06 21:02:00,
2013-04-06 17:13:00,42.0,5.0,30.17,North,350,4.0,-999.0,21,-99.99,,,-99.99,,2013-04-06 21:13:00,
2013-04-06 17:22:00,42.0,5.0,30.17,North,350,4.0,-999.0,21,-99.99,,,-99.99,,2013-04-06 21:22:00,
2013-04-06 17:33:00,42.0,4.0,30.18,NW,320,5.0,-999.0,20,-99.99,,,-99.99,,2013-04-06 21:33:00,
2013-04-06 17:43:00,42.0,4.0,30.18,NW,320,5.0,-999.0,20,-99.99,,,-99.99,,2013-04-06 21:43:00,
2013-04-06 17:53:00,42.0,4.0,30.18,NNW,336,5.0,-999.0,20,-99.99,,,-99.99,,2013-04-06 21:53:00,
2013-04-06 18:03:00,42.0,5.0,30.19,North,360,2.0,-999.0,21,-99.99,,,-99.99,,2013-04-06 22:03:00,
2013-04-06 18:13:00,42.0,5.0,30.19,North,360,2.0,-999.0,21,-99.99,,,-99.99,,2013-04-06 22:13:00,
2013-04-06 18:23:00,42.0,5.0,30.19,NW,304,3.0,-999.0,21,-99.99,,,-99.99,,2013-04-06 22:23:00,
2013-04-06 18:34:00,42.0,5.0,30.19,WNW,295,2.0,-999.0,21,-99.99,,,-99.99,,2013-04-06 22:34:00,
2013-04-06 18:43:00,42.0,5.0,30.19,WNW,295,2.0,-999.0,21,-99.99,,,-99.99,,2013-04-06 22:43:00,
2013-04-06 18:54:00,41.0,5.0,30.19,North,360,1.0,-999.0,22,-99.99,,,-99.99,,2013-04-06 22:54:00,
2013-04-06 19:03:00,41.0,7.0,30.17,NW,308,1.0,-999.0,24,-99.99,,,-99.99,,2013-04-06 23:03:00,
2013-04-06 19:14:00,41.0,7.0,30.17,NW,308,1.0,-999.0,24,-99.99,,,-99.99,,2013-04-06 23:14:00,
2013-04-06 19:23:00,40.0,5.0,30.18,NNW,328,0.0,-999.0,23,-99.99,,,-99.99,,2013-04-06 23:23:00,
2013-04-06 19:34:00,40.0,8.0,30.18,NNW,329,0.0,-999.0,26,-99.99,,,-99.99,,2013-04-06 23:34:00,
2013-04-06 19:43:00,40.0,8.0,30.18,NNW,329,0.0,-999.0,26,-99.99,,,-99.99,,2013-04-06 23:43:00,
2013-04-06 19:53:00,38.0,5.0,30.19,NNW,329,0.0,-999.0,25,-99.99,,,-99.99,,2013-04-06 23:53:00,
2013-04-06 20:02:00,37.0,6.0,30.20,NNW,329,0.0,-999.0,27,-99.99,,,-99.99,,2013-04-07 00:02:00,
2013-04-06 20:13:00,37.0,6.0,30.20,NNW,329,0.0,-999.0,27,-99.99,,,-99.99,,2013-04-07 00:13:00,
2013-04-06 20:22:00,35.0,5.0,30.20,NNW,329,0.0,-999.0,28,-99.99,,,-99.99,,2013-04-07 00:22:00,
2013-04-06 20:33:00,34.0,4.0,30.20,NNW,329,0.0,-999.0,27,-99.99,,,-99.99,,2013-04-07 00:33:00,
2013-04-06 20:43:00,34.0,4.0,30.20,NNW,329,0.0,-999.0,27,-99.99,,,-99.99,,2013-04-07 00:43:00,
2013-04-06 20:53:00,35.0,5.0,30.21,NNW,329,0.0,-999.0,28,-99.99,,,-99.99,,2013-04-07 00:53:00,
2013-04-06 21:02:00,34.0,5.0,30.21,NNW,329,0.0,-999.0,29,-99.99,,,-99.99,,2013-04-07 01:02:00,
2013-04-06 21:12:00,34.0,5.0,30.21,NNW,329,0.0,-999.0,29,-99.99,,,-99.99,,2013-04-07 01:12:00,
2013-04-06 21:23:00,34.0,4.0,30.21,NNW,329,0.0,-999.0,28,-99.99,,,-99.99,,2013-04-07 01:23:00,
2013-04-06 21:33:00,34.0,4.0,30.22,NNW,328,0.0,-999.0,27,-99.99,,,-99.99,,2013-04-07 01:33:00,
2013-04-06 21:43:00,34.0,4.0,30.22,NNW,328,0.0,-999.0,27,-99.99,,,-99.99,,2013-04-07 01:43:00,
2013-04-06 21:53:00,35.0,4.0,30.22,NNW,328,0.0,-999.0,27,-99.99,,,-99.99,,2013-04-07 01:53:00,
2013-04-06 22:03:00,34.0,4.0,30.22,NNW,328,0.0,-999.0,28,-99.99,,,-99.99,,2013-04-07 02:03:00,
2013-04-06 22:12:00,34.0,4.0,30.22,NNW,328,0.0,-999.0,28,-99.99,,,-99.99,,2013-04-07 02:12:00,
2013-04-06 22:23:00,34.0,5.0,30.22,NNW,328,0.0,-999.0,29,-99.99,,,-99.99,,2013-04-07 02:23:00,
2013-04-06 22:33:00,34.0,6.0,30.21,NNW,328,0.0,-999.0,30,-99.99,,,-99.99,,2013-04-07 02:33:00,
2013-04-06 22:43:00,34.0,6.0,30.21,NNW,328,0.0,-999.0,30,-99.99,,,-99.99,,2013-04-07 02:43:00,
2013-04-06 22:52:00,34.0,4.0,30.22,NNW,328,0.0,-999.0,28,-99.99,,,-99.99,,2013-04-07 02:52:00,
2013-04-06 23:02:00,33.0,5.0,30.22,NNW,328,0.0,-999.0,30,-99.99,,,-99.99,,2013-04-07 03:02:00,
2013-04-06 23:12:00,33.0,5.0,30.22,NNW,328,0.0,-999.0,30,-99.99,,,-99.99,,2013-04-07 03:12:00,
2013-04-06 23:22:00,33.0,4.0,30.22,NNW,328,0.0,-999.0,29,-99.99,,,-99.99,,2013-04-07 03:22:00,
2013-04-06 23:35:00,33.0,5.0,30.23,South,186,0.0,-999.0,30,-99.99,,,-99.99,,2013-04-07 03:35:00,
2013-04-06 23:43:00,33.0,5.0,30.23,South,186,0.0,-999.0,30,-99.99,,,-99.99,,2013-04-07 03:43:00,
2013-04-06 23:55:00,33.0,5.0,30.23,South,186,0.0,-999.0,30,-99.99,,,-99.99,,2013-04-07 03:55:00,